Regional Weather Roundup
Issued by NWS

Home | Current Version | Previous Version | Graphics & Text | Print | Product List | Glossary On
Versions: 1 2 3 4 5 6 7 8 9 10 11 12 13 14 15 16 17 18 19 20 21 22 23 24 25 26 27 28 29 30 31 32 33 34 35 36 37 38 39 40 41 42 43 44 45 46 47 48 49 50
201
ASUS43 KIND 260609
RWRIN

WEATHER ROUNDUP FOR INDIANA
NATIONAL WEATHER SERVICE INDIANAPOLIS IN
200 AM EDT SUN MAR 26 2017

NOTE: "FAIR" INDICATES FEW OR NO CLOUDS BELOW 12,000 FEET WITH NO
SIGNIFICANT WEATHER AND/OR OBSTRUCTIONS TO VISIBILITY.

* - STATION DOES NOT REPORT WEATHER SUCH AS PRECIPITATION OR FOG.

+ - STATION NOT QUALITY CONTROLLED BY THE NATIONAL WEATHER SERVICE.
    USE DATA WITH CAUTION...ESPECIALLY DEWPOINT AND RELATIVE
    HUMIDITY OBSERVATIONS.

INZ001>003-010>013-019-020-260700-
NORTHWEST INDIANA

CITY           SKY/WX    TMP DP  RH WIND       PRES   REMARKS
GARY /AIRPORT/ CLOUDY    53  50  91 E8        29.92F
KNOX *+        CLOUDY    46  37  71 E10       29.95F
LA PORTE +     RAIN      47  46  97 E8        29.97F
6HR MIN TEMP:  47; 6HR MAX TEMP:  53; 6HR PCP:  0.02;

MICHIGAN CITY+ DRIZZLE   46  46 100 E7        29.96F
MONTICELLO +   CLOUDY    52  50  95 E9        29.94S
6HR MIN TEMP:  52; 6HR MAX TEMP:  62; 6HR PCP:  0.12;

RENSSELAER +   CLOUDY    52  52 100 E13       29.92F
VALPARAISO     CLOUDY    50  48  93 E15       29.94F FOG
6HR MIN TEMP:  50; 6HR MAX TEMP:  57; 6HR PCP:  0.06;


$$

LMZ046-743>745-260700-
SOUTHERN LAKE MICHIGAN

STATION/POSITION TIME  TEMP    WIND        PRES    WAVE
                       AIR SEA DIR/SP/G            HT
                 (UTC) (F)     (DEG/KT/KT) (MB)    (FT)
BURNS HARBOR     0540   51     120/ 14/ 20 1013.9F
MICHIGAN CITY    0540   49     110/ 10/ 12   N/A

$$

INZ004-005-014>016-021>024-260700-
NORTH CENTRAL INDIANA

CITY           SKY/WX    TMP DP  RH WIND       PRES   REMARKS
GOSHEN         CLOUDY    44  39  82 E10       30.01F
6HR MIN TEMP:  44; 6HR MAX TEMP:  50; 6HR PCP:  0.19;

LOGANSPORT +   CLOUDY    48  46  93 E12       29.97S
PERU/GRISSOM   CLOUDY    49  49 100 E12       29.95S
6HR MIN TEMP:  49; 6HR MAX TEMP:  59; 6HR PCP:  0.59;

ROCHESTER +    LGT RAIN  50  48  93 E14       29.98F
SOUTH BEND     LGT RAIN  45  50 100 E10       29.98F
6HR MIN TEMP:  45; 6HR MAX TEMP:  52; 6HR PCP:  0.08;

WARSAW +       LGT RAIN  43  43 100 E8        30.01S

$$

INZ006>009-017-018-025>027-260700-
NORTHEAST INDIANA

CITY           SKY/WX    TMP DP  RH WIND       PRES   REMARKS
ANGOLA *+      MOCLDY    39  39 100 E14       30.05F
AUBURN +       CLOUDY    41  37  87 E10       30.05F
FORT WAYNE     CLOUDY    43  39  86 E14       30.03F
6HR MIN TEMP:  43; 6HR MAX TEMP:  49; 6HR PCP: TRACE;

HUNTINGTON +   CLOUDY    42  41  97 E8        30.01F
6HR MIN TEMP:  42; 6HR MAX TEMP:  50; 6HR PCP:  0.08;

KENDALLVILLE + CLOUDY    40  39  95 E8        30.04F

$$

INZ028-029-035-036-043>045-051>053-260700-
WEST CENTRAL INDIANA

CITY           SKY/WX    TMP DP  RH WIND       PRES   REMARKS
CRAWFORDSVL +  CLOUDY    57  57 100 SE13      29.93S
6HR MIN TEMP:  57; 6HR MAX TEMP:  66; 6HR PCP:  0.01;

GREENCASTLE +  CLOUDY    57  55  94 S10       29.94F
LAFAYETTE      CLOUDY    59  56  89 SE10      29.92S
6HR MIN TEMP:  59; 6HR MAX TEMP:  64; 6HR PCP: TRACE;

TERRE HAUTE    CLOUDY    60  55  83 SE14      29.91F
6HR MIN TEMP:  60; 6HR MAX TEMP:  66; 6HR PCP:  0.02;


$$

INZ030>032-037>040-046>048-054>057-064-065-260700-
CENTRAL INDIANA

CITY           SKY/WX    TMP DP  RH WIND       PRES   REMARKS
CP ATTERBURY + CLOUDY    59  55  88 S6        29.97F
FRANKFORT +    LGT RAIN  60  58  92 SE9       29.96S
6HR MIN TEMP:  60; 6HR MAX TEMP:  65; 6HR PCP:  0.09;

GREENWOOD *+   CLOUDY    59  56  92 SE6       29.97F
INDIANAPOLIS   LGT RAIN  58  56  93 SE7       29.95F
6HR MIN TEMP:  58; 6HR MAX TEMP:  60; 6HR PCP:  0.21;

-EAGLE CREEK   LGT RAIN  59  56  89 SE6       29.95F
6HR MIN TEMP:  58; 6HR MAX TEMP:  61; 6HR PCP:  0.29;

KOKOMO +       CLOUDY    50  48  93 E12       29.98F
6HR MIN TEMP:  50; 6HR MAX TEMP:  63; 6HR PCP:  0.35;

MARION +       CLOUDY    48  46  92 E12       29.99F FOG
MT COMFORT *+  CLOUDY    59  55  88 S8        29.97F
SHELBYVILLE    LGT RAIN  63  53  70 S13       29.96F
6HR MIN TEMP:  59; 6HR MAX TEMP:  66; 6HR PCP:  0.02;

ZIONSVILLE +   RAIN      57  55  92 SE8       29.97S
6HR MIN TEMP:  56; 6HR MAX TEMP:  59; 6HR PCP:  0.12;


$$

INZ033-034-041-042-049-050-058-059-260700-
EAST CENTRAL INDIANA

CITY           SKY/WX    TMP DP  RH WIND       PRES   REMARKS
MUNCIE         CLOUDY    54  50  86 E8        29.98F
6HR MIN TEMP:  54; 6HR MAX TEMP:  71; 6HR PCP:  0.03;

RICHMOND +     DRIZZLE   55  54  94 S8        30.02S

$$

INZ060-061-067>069-081>083-085>088-260700-
SOUTHWEST INDIANA

CITY           SKY/WX    TMP DP  RH WIND       PRES   REMARKS
EVANSVILLE     CLOUDY    60  57  89 SE7       29.93S
6HR MIN TEMP:  60; 6HR MAX TEMP:  68; 6HR PCP:  0.12;

HUNTINGBURG *+ LGT RAIN  60  56  86 S10G17    29.95S
6HR MIN TEMP:  60; 6HR MAX TEMP:  67; 6HR PCP:  0.09;

WASHINGTON +   RAIN      59  57  94 MISG      29.93S
6HR MIN TEMP:  59; 6HR MAX TEMP:  65; 6HR PCP:  0.05;


$$

INZ062-063-066-070>080-084-089>092-260700-
SOUTH CENTRAL AND SOUTHEAST INDIANA

CITY           SKY/WX    TMP DP  RH WIND       PRES   REMARKS
BLOOMINGTON    LGT RAIN  58  55  90 SE6       29.94F
6HR MIN TEMP:  58; 6HR MAX TEMP:  61; 6HR PCP:  0.13;

MADISON *+     CLOUDY    61  54  77 S6        30.02S
NORTH VERNON + LGT RAIN  63  54  72 S9G16     29.99F
SEYMOUR +      LGT RAIN  63  54  72 S14       29.98

$$





USA.gov is the U.S. government's official web portal to all federal, state and local government web resources and services.